[[[{"header":{"parameterUnit":"kt","parameterCategory":2,"dx":1,"dy":1,"la1":30.253999710083008,"la2":30.299108505249023,"lo1":-89.0895004272461,"lo2":-89.04439544677734,"nx":28,"ny":28,"refTime":"2022-10-17T21:00:00:Z","depth":0,"parameterNumber":1,"parameterNumberName":"U-component_of_WINDS"},"data":[-1.8956,-1.9085,-1.9089,-1.9237,-1.9265,-1.9367,-1.9405,-1.9454,-1.9493,-1.9614,-1.9684,-1.97,-1.9741,-1.9825,-1.9901,-1.9906,-1.9939,-1.998,-1.9981,-1.979,-1.9764,-1.974,-1.9711,-1.9987,-1.9987,-2.0178,-2.018,-2.0182,-1.8811,-1.8841,-1.8921,-1.9001,-1.9069,-1.9031,-1.9091,-1.9151,-1.9243,-1.9293,-1.9362,-1.9469,-1.9554,-1.9582,-1.9664,-1.9723,-1.9711,-1.9745,-1.9743,-1.975,-1.9546,-1.9515,-1.9754,-1.9754,-1.9753,-1.9753,-1.9753,-1.9753,-1.855,-1.8628,-1.8679,-1.8766,-1.8807,-1.8861,-1.8935,-1.8954,-1.9033,-1.912,-1.9109,-1.9214,-1.9264,-1.9366,-1.9401,-1.9482,-1.9445,-1.9485,-1.9496,-1.9506,-1.9518,-1.9243,-1.9496,-1.9495,-1.9495,-1.9494,-1.9494,0,-1.8361,-1.836,-1.8438,-1.8516,-1.858,-1.8641,-1.8699,-1.8744,-1.8743,-1.8808,-1.8901,-1.8956,-1.9064,-1.9153,-1.9231,-1.926,-1.923,-1.9226,-1.9254,-1.9264,-1.926,-1.9265,-1.8934,-1.9221,-1.9218,-1.9217,-1.9215,-1.9214,-1.8101,-1.819,-1.8247,-1.8301,-1.8334,-1.8421,-1.8473,-1.8465,-1.8522,-1.8591,-1.8659,-1.8748,-1.882,-1.8969,-1.8992,-1.9073,-1.906,-1.9169,-1.9072,-1.9075,-1.9065,-1.9061,-1.907,-1.919,-1.9193,-1.9195,-1.9197,0,-1.7954,-1.7961,-1.8102,-1.815,-1.8164,-1.8258,-1.8299,-1.8376,-1.8387,-1.8494,-1.8519,-1.8537,-1.863,-1.8636,-1.8743,-1.8743,-1.8897,-1.8881,-1.8879,-1.8877,-1.8977,-1.8969,-1.9297,-1.934,-1.905,-1.9053,-1.9055,0,-1.7736,-1.7854,-1.7859,-1.7941,-1.8071,-1.8061,-1.819,-1.8213,-1.8258,-1.8343,-1.8308,-1.8388,-1.8383,-1.8464,-1.8465,-1.8591,-1.8611,-1.862,-1.8619,-1.8625,-1.8625,-1.8659,-1.8647,-1.8612,-1.861,-1.8609,-1.8607,0,-1.7509,-1.7649,-1.7781,-1.7815,-1.7879,-1.7941,-1.797,-1.8021,-1.8074,-1.8142,-1.8176,-1.8257,-1.8302,-1.8364,-1.8365,-1.8299,-1.8519,-1.843,-1.8529,-1.8529,-1.8582,-1.8579,-1.8864,-1.8605,-1.8605,-1.8604,-1.8604,0,-1.7336,-1.7406,-1.7595,-1.7648,-1.7686,-1.7772,-1.7852,-1.7927,-1.7984,-1.799,-1.8044,-1.8024,-1.8134,-1.8045,-1.8197,-1.8112,-1.8157,-1.8175,-1.8183,-1.8197,-1.8098,-1.8262,-1.8529,-1.8559,-1.8203,-1.82,-1.8197,0,-1.7074,-1.7267,-1.7262,-1.7442,-1.7533,-1.7489,-1.7585,-1.7636,-1.7653,-1.7732,-1.775,-1.7841,-1.7775,-1.7805,-1.7879,-1.7903,-1.8013,-1.7887,-1.8003,-1.8008,-1.7993,-1.8238,-1.8279,-1.8469,-1.8155,-1.8159,-1.8162,0,-1.6873,-1.6951,-1.6984,-1.7023,-1.7091,-1.7167,-1.7276,-1.7365,-1.7418,-1.748,-1.7573,-1.7699,-1.7656,-1.7706,-1.7698,-1.7776,-1.7938,-1.7719,-1.7721,-1.776,-1.8133,-1.8171,-1.8203,-1.7916,-1.7921,-1.7925,-1.8128,0,-1.6614,-1.6712,-1.6801,-1.6888,-1.6948,-1.7061,-1.707,-1.7131,-1.7118,-1.7134,-1.727,-1.7316,-1.7408,-1.7445,-1.7434,-1.7608,-1.7581,-1.7534,-1.7452,-1.7612,-1.7679,-1.7707,-1.735,-1.7347,-1.7345,-1.7344,0,0,-1.6363,-1.6505,-1.6497,-1.6604,-1.6655,-1.661,-1.6731,-1.6774,-1.6865,-1.6901,-1.6853,-1.7041,-1.7082,-1.7247,-1.7297,-1.7334,-1.7366,-1.7311,-1.7535,-1.7556,-1.7576,-1.7648,-1.7676,-1.734,-1.7339,-1.7339,-1.7338,0,-1.6272,-1.6313,-1.6432,-1.6477,-1.6543,-1.6555,-1.6583,-1.6642,-1.6659,-1.6792,-1.6756,-1.6838,-1.699,-1.7038,-1.7082,-1.729,-1.7259,-1.7316,-1.7426,-1.7514,-1.7538,-1.7559,-1.7635,-1.7662,-1.7333,-1.7334,-1.7334,0,-1.6078,-1.612,-1.6179,-1.6291,-1.6335,-1.643,-1.6344,-1.6449,-1.6519,-1.6468,-1.6602,-1.663,-1.6695,-1.685,-1.6919,-1.6879,-1.7161,-1.7074,-1.7087,-1.7097,-1.7183,-1.7211,-1.7237,-1.6901,-1.6899,-1.6898,0,0,-1.5998,-1.609,-1.6135,-1.6273,-1.6303,-1.6323,-1.6375,-1.6368,-1.6428,-1.6452,-1.6488,-1.6548,-1.6635,-1.6693,-1.6776,-1.6944,-1.6958,-1.702,-1.7041,-1.7058,-1.7076,-1.7166,-1.7195,-1.6892,-1.6892,-1.6892,0,0,-1.5961,-1.6019,-1.5995,-1.6156,-1.6214,-1.6269,-1.6353,-1.6326,-1.6402,-1.6391,-1.6386,-1.6402,-1.6546,-1.6576,-1.6496,-1.6748,-1.6665,-1.6684,-1.6724,-1.675,-1.677,-1.6762,-1.6418,0,0,0,0,0,-1.5873,-1.6011,-1.5989,-1.6018,-1.6161,-1.628,-1.6299,-1.6298,-1.6239,-1.6305,-1.633,-1.6294,-1.6531,-1.6461,-1.6489,-1.658,-1.6817,-1.683,-1.6843,-1.6933,-1.696,-1.6983,0,0,0,0,0,0,-1.5885,-1.592,-1.5985,-1.6046,-1.6079,-1.6275,-1.6175,-1.6179,-1.6231,-1.6223,-1.629,-1.6296,-1.6298,-1.6446,-1.6472,-1.6558,-1.6409,-1.6822,-1.6833,-1.6843,-1.6943,-1.6965,-1.6984,0,0,0,0,0,-1.5894,-1.5922,-1.6153,-1.6044,-1.6073,-1.6104,-1.617,-1.6172,-1.6213,-1.6254,-1.6259,-1.6208,-1.6301,-1.6322,-1.6461,-1.6546,-1.6391,-1.64,-1.6829,-1.6838,-1.6846,-1.6953,0,0,0,0,0,0,-1.59,-1.5925,-1.6158,-1.6167,-1.5993,-1.6092,-1.6108,-1.6167,-1.6242,-1.6248,-1.6171,-1.6163,-1.6304,-1.632,-1.6337,-1.6542,-1.6376,-1.6386,-1.6392,-1.6836,-1.6843,-1.6849,0,0,0,0,0,0,-1.5909,-1.5932,-1.6162,-1.6098,-1.6099,-1.6082,-1.6096,-1.6215,-1.6243,-1.6154,-1.615,-1.6167,-1.6279,-1.632,-1.6332,-1.6517,-1.6365,-1.6374,-1.6381,-1.6385,-1.6842,-1.6847,0,0,0,0,0,0,-1.5919,-1.5939,-1.6095,-1.6096,-1.6097,-1.6192,-1.6187,-1.6335,-1.6187,-1.6151,-1.6173,-1.6167,-1.6279,-1.6292,-1.633,-1.6509,-1.6515,-1.6365,-1.6372,-1.6376,-1.6379,0,0,0,0,0,0,0,-1.5927,-1.5796,-1.6108,-1.6095,-1.6095,-1.6245,-1.6247,-1.625,-1.6185,-1.618,-1.6175,-1.617,-1.6311,-1.6321,-1.6332,-1.6502,0,0,-1.6364,-1.6369,0,0,0,0,0,0,0,0,-1.5788,-1.5794,-1.6108,-1.611,-1.6111,-1.6245,-1.6247,-1.6249,-1.6184,-1.618,-1.6176,-1.6172,-1.6314,-1.6322,-1.6331,0,0,0,0,0,0,0,0,0,0,0,0,0,0,0,-1.6108,-1.611,0,-1.6246,-1.6247,-1.6249,-1.6184,-1.618,-1.6177,-1.6173,-1.6316,-1.6323,-1.633,0,0,0,0,0,0,0,0,0,0,0,0,0,0,0,0,0,0,0,0,0,0,0,0,0,0,0,0,0,0,0,0,0,0,0,0,0,0,0,0,0,0,0,0,0,0,0,0,0,0,0,0,0,0,0,0,0,0,0,0,0,0,0,0,0,0,0,0,0]}],[{"header":{"parameterUnit":"kt","parameterCategory":2,"dx":1,"dy":1,"la1":30.253999710083008,"la2":30.299108505249023,"lo1":-89.0895004272461,"lo2":-89.04439544677734,"nx":28,"ny":28,"refTime":"2022-10-17T21:00:00:Z","depth":0,"parameterNumber":2,"parameterNumberName":"V-component_of_WINDS"},"data":[-16.3124,-16.3442,-16.3468,-16.384,-16.3924,-16.4181,-16.428,-16.4408,-16.4516,-16.4819,-16.4997,-16.5049,-16.516,-16.5372,-16.5561,-16.5578,-16.5656,-16.5751,-16.5755,-16.5313,-16.5253,-16.5196,-16.5124,-16.5769,-16.5769,-16.6209,-16.6213,-16.6216,-16.2795,-16.2883,-16.3089,-16.3304,-16.3479,-16.3402,-16.3563,-16.3713,-16.3943,-16.4077,-16.4254,-16.4521,-16.4732,-16.4812,-16.5017,-16.5159,-16.5132,-16.5213,-16.5202,-16.522,-16.4749,-16.4673,-16.5232,-16.5232,-16.5232,-16.5231,-16.5231,-16.5231,-16.2202,-16.2393,-16.2538,-16.2761,-16.2875,-16.3017,-16.32,-16.3263,-16.346,-16.3683,-16.3669,-16.3927,-16.4062,-16.4318,-16.4408,-16.4606,-16.4518,-16.4612,-16.4636,-16.4659,-16.4682,-16.4043,-16.4641,-16.4639,-16.4638,-16.4637,-16.4636,0,-16.1775,-16.1784,-16.1983,-16.2189,-16.2352,-16.2513,-16.2663,-16.2777,-16.2795,-16.2957,-16.3192,-16.3329,-16.3599,-16.3817,-16.4013,-16.4087,-16.4018,-16.4013,-16.4078,-16.4089,-16.4073,-16.4084,-16.3313,-16.3995,-16.399,-16.3986,-16.3983,-16.3981,-16.1178,-16.1398,-16.1561,-16.1697,-16.1786,-16.2005,-16.2139,-16.214,-16.2281,-16.2463,-16.2627,-16.2848,-16.3025,-16.3391,-16.3454,-16.3653,-16.3621,-16.3879,-16.365,-16.3652,-16.3624,-16.3611,-16.3631,-16.3923,-16.3931,-16.3937,-16.3942,0,-16.0839,-16.0878,-16.1226,-16.1365,-16.1406,-16.1634,-16.175,-16.1937,-16.1976,-16.2238,-16.2299,-16.2358,-16.2585,-16.2607,-16.2869,-16.2873,-16.324,-16.3204,-16.3193,-16.3187,-16.3419,-16.3397,-16.4173,-16.4273,-16.3606,-16.3612,-16.3618,0,-16.0344,-16.0632,-16.0673,-16.0873,-16.1191,-16.1185,-16.1498,-16.1563,-16.1682,-16.1888,-16.1816,-16.201,-16.2008,-16.2204,-16.221,-16.2514,-16.2563,-16.2583,-16.2581,-16.259,-16.2588,-16.2662,-16.263,-16.257,-16.2566,-16.2562,-16.2559,0,-15.9808,-16.0168,-16.0493,-16.058,-16.0756,-16.0908,-16.0987,-16.112,-16.125,-16.1422,-16.1506,-16.1705,-16.1814,-16.1967,-16.1974,-16.1817,-16.2346,-16.2132,-16.2366,-16.2366,-16.2481,-16.2474,-16.3157,-16.2554,-16.2553,-16.2552,-16.255,0,-15.9414,-15.9595,-16.0061,-16.0205,-16.0299,-16.0512,-16.071,-16.0898,-16.1043,-16.1062,-16.1196,-16.115,-16.142,-16.1205,-16.1575,-16.1369,-16.1479,-16.1523,-16.154,-16.1565,-16.1325,-16.1706,-16.2355,-16.2423,-16.1587,-16.1579,-16.1572,0,-15.8789,-15.927,-15.927,-15.9712,-15.9937,-15.9842,-16.0077,-16.0209,-16.0255,-16.0448,-16.0494,-16.0714,-16.056,-16.0631,-16.0812,-16.0868,-16.1135,-16.0832,-16.1103,-16.1113,-16.1068,-16.1666,-16.1757,-16.2211,-16.147,-16.1481,-16.1488,0,-15.831,-15.8525,-15.8605,-15.8704,-15.8881,-15.9069,-15.9339,-15.9558,-15.9687,-15.9843,-16.0067,-16.0376,-16.0271,-16.039,-16.0373,-16.056,-16.0953,-16.0421,-16.0424,-16.0515,-16.1421,-16.1506,-16.1582,-16.0899,-16.0912,-16.0922,-16.1407,0,-15.7703,-15.7949,-15.8165,-15.8389,-15.8538,-15.8816,-15.8845,-15.8996,-15.8966,-15.9008,-15.9338,-15.945,-15.9669,-15.9761,-15.9733,-16.0154,-16.0086,-15.9972,-15.9765,-16.0158,-16.0318,-16.0383,-15.9524,-15.9518,-15.9513,-15.9509,0,0,-15.7094,-15.7448,-15.744,-15.7705,-15.783,-15.7729,-15.8023,-15.8132,-15.8355,-15.8441,-15.8326,-15.8779,-15.8875,-15.9272,-15.9397,-15.9486,-15.9562,-15.9424,-15.9971,-16.0022,-16.007,-16.0241,-16.0309,-15.95,-15.9498,-15.9496,-15.9494,0,-15.6879,-15.6989,-15.7283,-15.7396,-15.7564,-15.7596,-15.7666,-15.7813,-15.7853,-15.8179,-15.8086,-15.8287,-15.865,-15.8763,-15.8868,-15.9377,-15.9294,-15.9442,-15.9707,-15.9919,-15.9977,-16.0029,-16.0209,-16.0274,-15.9482,-15.9483,-15.9483,0,-15.6412,-15.6523,-15.6669,-15.6952,-15.706,-15.7294,-15.7085,-15.7341,-15.7513,-15.7384,-15.7708,-15.7774,-15.7927,-15.83,-15.8468,-15.8367,-15.9049,-15.8839,-15.8871,-15.889,-15.9096,-15.9166,-15.9228,-15.8408,-15.8404,-15.8401,0,0,-15.6221,-15.6451,-15.6569,-15.6908,-15.6983,-15.7034,-15.716,-15.7144,-15.7289,-15.7347,-15.743,-15.757,-15.7779,-15.7918,-15.8116,-15.8522,-15.8552,-15.8706,-15.8757,-15.8798,-15.8839,-15.9056,-15.9125,-15.8386,-15.8386,-15.8385,0,0,-15.6129,-15.6281,-15.6227,-15.6625,-15.6767,-15.6903,-15.7107,-15.7042,-15.7225,-15.7196,-15.7176,-15.7213,-15.7562,-15.7629,-15.7433,-15.8042,-15.7836,-15.7883,-15.7985,-15.805,-15.8099,-15.8075,-15.7231,0,0,0,0,0,-15.5925,-15.6262,-15.6212,-15.6283,-15.6639,-15.6932,-15.6976,-15.6971,-15.6826,-15.6987,-15.7046,-15.695,-15.7519,-15.7345,-15.7413,-15.7632,-15.82,-15.8233,-15.8264,-15.8491,-15.8558,-15.8614,0,0,0,0,0,0,-15.5952,-15.604,-15.6203,-15.6354,-15.6433,-15.6919,-15.6672,-15.668,-15.6808,-15.6786,-15.6942,-15.6955,-15.6952,-15.7309,-15.7371,-15.7579,-15.721,-15.8213,-15.8241,-15.8266,-15.8514,-15.8569,-15.8616,0,0,0,0,0,-15.5975,-15.6045,-15.6618,-15.6348,-15.6418,-15.6492,-15.6659,-15.6664,-15.6763,-15.6855,-15.6865,-15.6747,-15.6959,-15.701,-15.7346,-15.7551,-15.7167,-15.719,-15.8231,-15.8253,-15.8273,-15.8541,0,0,0,0,0,0,-15.5991,-15.6049,-15.6632,-15.6653,-15.6221,-15.6464,-15.6502,-15.665,-15.6823,-15.6837,-15.6658,-15.6638,-15.6967,-15.7005,-15.7045,-15.7542,-15.7132,-15.7156,-15.7171,-15.8248,-15.8265,-15.828,0,0,0,0,0,0,-15.6011,-15.6068,-15.6643,-15.6483,-15.6485,-15.6439,-15.6473,-15.6756,-15.6826,-15.6615,-15.6604,-15.6647,-15.6905,-15.7004,-15.7034,-15.7477,-15.7106,-15.7128,-15.7144,-15.7154,-15.8262,-15.8275,0,0,0,0,0,0,-15.6035,-15.6083,-15.6477,-15.6479,-15.648,-15.6712,-15.6688,-15.7052,-15.6694,-15.6609,-15.6661,-15.6646,-15.6907,-15.6937,-15.7028,-15.7458,-15.7472,-15.7106,-15.7122,-15.7133,-15.714,0,0,0,0,0,0,0,-15.6054,-15.5733,-15.651,-15.6476,-15.6476,-15.6844,-15.685,-15.6855,-15.6691,-15.6678,-15.6665,-15.6653,-15.6978,-15.7002,-15.7027,-15.7443,0,0,-15.7104,-15.7115,0,0,0,0,0,0,0,0,-15.5712,-15.5728,-15.6511,-15.6515,-15.6519,-15.6845,-15.685,-15.6854,-15.6689,-15.6678,-15.6668,-15.6658,-15.6984,-15.7004,-15.7024,0,0,0,0,0,0,0,0,0,0,0,0,0,0,0,-15.6511,-15.6515,0,-15.6846,-15.685,-15.6853,-15.6687,-15.6678,-15.667,-15.6662,-15.699,-15.7006,-15.7023,0,0,0,0,0,0,0,0,0,0,0,0,0,0,0,0,0,0,0,0,0,0,0,0,0,0,0,0,0,0,0,0,0,0,0,0,0,0,0,0,0,0,0,0,0,0,0,0,0,0,0,0,0,0,0,0,0,0,0,0,0,0,0,0,0,0,0,0,0]}]]]